This is the latest recevied weather packets stored in our database for station/object lw9ero. If no packets are shown the sender has not sent any weather packets the latest 10 day(s).
| Time | Temp. | Humidity | Pressure | Rain* | Wind** | Luminosity | Snow |
|---|---|---|---|---|---|---|---|
| 1778189401 | 11.67° C | 87% | 1005.7 hPa | 0 mm | - | - | - |
| 1778188795 | 11.67° C | 88% | 1005.8 hPa | 0 mm | - | - | - |
| 1778188189 | 11.67° C | 88% | 1006 hPa | 0 mm | - | - | - |
| 1778187583 | 11.67° C | 90% | 1005.9 hPa | 0 mm | - | - | - |
| 1778186976 | 11.67° C | 89% | 1005.5 hPa | 0 mm | - | - | - |
| 1778186370 | 11.67° C | 89% | 1005.7 hPa | 0 mm | - | - | - |
| 1778185766 | 11.67° C | 88% | 1005.7 hPa | 0 mm | - | - | - |
| 1778185160 | 11.67° C | 91% | 1005.3 hPa | 0 mm | - | - | - |
| 1778184552 | 11.67° C | 94% | 1005.1 hPa | 0 mm | - | - | - |
| 1778183945 | 11.67° C | 94% | 1004.9 hPa | 0 mm | - | - | - |
| 1778183338 | 11.67° C | 95% | 1004.8 hPa | 0 mm | - | - | - |
| 1778182734 | 11.67° C | 94% | 1004.9 hPa | 0 mm | - | - | - |
| 1778182126 | 12.22° C | 93% | 1004.5 hPa | 0 mm | - | - | - |
| 1778181520 | 12.22° C | 91% | 1005.2 hPa | 0 mm | - | - | - |
| 1778180914 | 12.78° C | 89% | 1005.6 hPa | 0 mm | - | - | - |
| 1778180308 | 12.78° C | 89% | 1005.9 hPa | 0 mm | - | - | - |
| 1778179702 | 12.78° C | 89% | 1006.3 hPa | 0 mm | - | - | - |
| 1778179098 | 12.78° C | 88% | 1006.2 hPa | 0 mm | - | - | - |
| 1778178489 | 13.33° C | 85% | 1006.2 hPa | 0 mm | - | - | - |
| 1778177883 | 13.33° C | 85% | 1006.6 hPa | 0 mm | - | - | - |
| 1778177278 | 12.78° C | 85% | 1006.3 hPa | 0 mm | - | - | - |
| 1778176670 | 13.33° C | 84% | 1006.4 hPa | 0 mm | - | - | - |
| 1778176064 | 13.33° C | 85% | 1006.2 hPa | 0 mm | - | - | - |
| 1778175458 | 12.78° C | 83% | 1006 hPa | 0 mm | - | - | - |
| 1778174852 | 13.33° C | 82% | 1005.9 hPa | 0 mm | - | - | - |
* Rain latest hour (hover to see other rain measurements)
** Current wind speed in m/s (hover to see current wind gust speed)